Location: Tamazert
(32.6352°N, 5.2072°W)
Time: 04:14:05
(UTC+00:00)

Vanguard 1 Rocket - Pass Details

Date: 11 October 2022
Orbit: 650 x 4225 km, 34.3° (Epoch: 04 December)

Event Time Altitude Azimuth Distance (km) Brightness Sun altitude
Rises 21:07:51 0° 278° (W) 8,256 13.1 -41.3°
Reaches altitude 10° 21:14:05 10° 279° (W) 6,924 12.5 -42.5°
Enters shadow 21:34:12 82° 289° (WNW) 2,524 9.3 -46.4°
Maximum altitude 21:35:12 89° 12° (NNE) 2,424 - -46.5°
Drops below altitude 10° 21:45:38 10° 102° (ESE) 3,745 - -48.5°
Sets 21:47:58 0° 102° (ESE) 4,420 - -48.9°
